Regional Weather Roundup
Issued by NWS

Home | Current Version | Previous Version | Graphics & Text | Print | Product List | Glossary On
Versions: 1 2 3 4 5 6 7 8 9 10 11 12 13 14 15 16 17 18 19 20 21 22 23 24 25 26 27 28 29 30 31 32 33 34 35 36 37 38 39 40 41 42 43 44 45 46 47 48 49 50
000
ASUS43 KMKX 280100
RWRWI

WISCONSIN REGIONAL WEATHER ROUNDUP
NATIONAL WEATHER SERVICE MILWAUKEE/SULLIVAN WI
800 PM CDT SUN JUL 27 2014

NOTE: "FAIR" INDICATES FEW OR NO CLOUDS BELOW 12,000 FEET WITH NO
SIGNIFICANT WEATHER AND/OR OBSTRUCTIONS TO VISIBILITY.

WIZ001-002-006>008-014>016-023>028-280200-
NORTHWEST WISCONSIN

CITY           SKY/WX    TMP DP  RH WIND       PRES   REMARKS
SUPERIOR ARPT  CLOUDY    61  55  79 W5        30.06S
ASHLAND        CLEAR     60  53  77 W3        30.05S
HAYWARD        CLOUDY    61  53  75 VRB3      30.06R
SIREN          CLOUDY    64  55  73 N5        30.06S
RICE LAKE      CLEAR     64  50  61 N14       30.06R
LADYSMITH      CLEAR     62  52  70 N9        30.05R
EAU CLAIRE     MOCLDY    66  56  70 N8        30.01R
MENOMONIE      CLEAR     66  54  66 N9        30.03R
NEW RICHMOND   MOCLDY    65  54  67 NE14      30.05R
OSCEOLA        CLOUDY    65  58  76 NE6       30.07R
$$

WIZ003>005-009-010-017-018-280200-
NORTH CENTRAL WISCONSIN

CITY           SKY/WX    TMP DP  RH WIND       PRES   REMARKS
WOODRUFF       CLEAR     62  52  70 N10       30.01R
RHINELANDER    CLEAR     58  50  75 VRB5      30.01R
EAGLE RIVER    MOCLDY    60  49  66 N9        30.00R
LAND O LAKES   CLOUDY    62  50  64 N9        30.01R
PHILLIPS       CLEAR     59  51  73 N6        30.02R
TOMAHAWK       CLEAR     59  51  74 N6        30.01R
MEDFORD        CLOUDY    61  54  78 N14G24    30.00R
MERRILL        CLEAR     61  53  75 N12       29.98R
$$

WIZ029-030-035-036-043>047-280200-
CENTRAL WISCONSIN

CITY           SKY/WX    TMP DP  RH WIND       PRES   REMARKS
WAUSAU         PTCLDY    63  54  72 N8G18     29.96R
MOSINEE        MOCLDY    63  54  72 N18       29.98R
MARSHFIELD     MOCLDY    65  55  70 N15G23    29.98R
STEVENS POINT  PTCLDY    62  56  82 N10       29.95R
WAUPACA        CLEAR     67  59  77 N13       29.92R
WAUTOMA        NOT AVBL
WISC RAPIDS    MOCLDY    67  57  70 MISG      29.96R
CAMP DOUGLAS   NOT AVBL
$$

WIZ011>013-019>022-031-037>040-048>050-280200-
NORTHEAST WISCONSIN

CITY           SKY/WX    TMP DP  RH WIND       PRES   REMARKS
ANTIGO         CLOUDY    60  53  76 N13       29.97R
STURGEON BAY   CLOUDY    63  52  67 N17       29.88R
GREEN BAY      MOCLDY    65  55  70 N16       29.89R
MANITOWOC      NOT AVBL
APPLETON       MOCLDY    64  54  68 N17G24    29.90R
CLINTONVILLE   MOCLDY    64  54  68 N16G24    29.92R
OSHKOSH        PTCLDY    67  56  67 N21       29.88R
$$

WIZ032>034-041-042-053>061-280200-
SOUTHWEST WISCONSIN

CITY           SKY/WX    TMP DP  RH WIND       PRES   REMARKS
LA CROSSE      CLEAR     73  58  59 N12       29.94R
SPARTA         PTCLDY    69  56  63 N7        29.95R
VIROQUA        FAIR      70  60  71 NW14      29.94R
BOSCOBEL       CLOUDY    68  62  81 N6        29.93R
PRAIRIE DU CHI MOCLDY    71  61  70 NW8       29.92R
PLATTEVILLE    FAIR      72  59  62 NW14      29.92R
$$

WIZ056-057-062-063-064-067-068-280200-
SOUTH CENTRAL WISCONSIN

CITY           SKY/WX    TMP DP  RH WIND       PRES   REMARKS
BARABOO/DELLS  CLEAR     68  59  73 NW7G16    29.90R
LONE ROCK      NOT AVBL
WATERTOWN      MOCLDY    69  60  72 N14G20    29.85R
MADISON        MOCLDY    69  61  75 N6        29.89R
MIDDLETON      FAIR      70  60  70 N9        29.89R
MONROE         CLOUDY    70  59  68 N8G18     29.88R
JANESVILLE     PTCLDY    72  59  64 NW13      29.85R
$$

WIZ051-052-058>065-066-070>072-280200-
SOUTHEAST WISCONSIN

CITY           SKY/WX    TMP DP  RH WIND       PRES   REMARKS
MILWAUKEE      MOCLDY    64  59  83 N15G22    29.84R
WAUKESHA       NOT AVBL
MILWAUKEE/TIMM MOCLDY    66  59  77 NW10      29.84R
RACINE         MOCLDY    66  59  78 NE14      29.85R
BURLINGTON     MOCLDY    65  60  83 NW9       29.83R
KENOSHA        MOCLDY    65  63  93 NW7       29.83R
FOND DU LAC    CLOUDY    67  60  78 N16G25    29.88R
SHEBOYGAN      CLOUDY    65  59  81 N12       29.85R
WEST BEND      MOCLDY    64  55  72 N6G16     29.84R
JUNEAU         PTCLDY    67  56  68 N8        29.87R
$$

LSZ147-162-280200-
LAKE SUPERIOR

STATION/POSITION TIME  TEMP    WIND        PRES    WAVE
                       AIR SEA DIR/SP/G            HT/PER
                 (UTC) (F)     (DEG/KT/KT) (MB)    (FT/S)
W MID LAKE BUOY  2350   49 43  290/  8/  8 1016.4R   1/ 4
PORT WING        0000   58     250/  5/  9 1017.6R
SAXON HARBOR     0000             CALM     1016.9S
$$

LMZ867-665-643>646-280200-
LAKE MICHIGAN

STATION/POSITION TIME  TEMP    WIND        PRES    WAVE
                       AIR SEA DIR/SP/G            HT/PER
                 (UTC) (F)     (DEG/KT/KT) (MB)    (FT/S)
N MID LAKE BUOY  2350   60 55  350/ 17/ 19 1008.5R   3/ 4
NORTHPORT PIER   0000   63     350/ 22/ 29 1010.2R
KEWAUNEE LAKESHO 0000   64     360/ 13/ 19 1010.6R
SHEBOYGAN LAKESH 0000   57     350/ 15/ 16 1009.8R
PORT WASHINGTON  0000           40/  6/ 17 1010.2
ATWATER BUOY     0000   63      20/  6     1010.3R
MILWAUKEE LAKESH 0000   71     340/ 12/ 17   N/A
S MID LAKE BUOY  2350   63 62  310/ 14/ 17 1008.1R   2/ 4
KENOSHA   LAKESH 0000   72     340/ 12/ 13 1008.5R
$$

TC  - TEMPERATURE IN CELSIUS
VSB - VISIBILITY IN STATUTE MILES
WCI - WIND CHILL INDEX
HX  - HEAT INDEX




USA.gov is the U.S. government's official web portal to all federal, state and local government web resources and services.